Regional Weather Roundup
Issued by NWS

Home | Current Version | Previous Version | Text Only | Print | Product List | Glossary On
Versions: 1 2 3 4 5 6 7 8 9 10 11 12 13 14 15 16 17 18 19 20 21 22 23 24 25 26 27 28 29 30 31 32 33 34 35 36 37 38 39 40 41 42 43 44 45 46 47 48 49 50
000
ASUS42 KFFC 031603
RWRGA
WEATHER ROUNDUP FOR GEORGIA
NATIONAL WEATHER SERVICE PEACHTREE CITY GA
1100 AM EST TUE MAR 03 2015

NOTE: "FAIR" INDICATES FEW OR NO CLOUDS BELOW 12,000 FEET WITH NO
SIGNIFICANT WEATHER AND/OR OBSTRUCTIONS TO VISIBILITY.

* = USE WITH CAUTION. THE STATIONS MARKED WITH AN ASTERISK MAY NOT
REPORT WEATHER SUCH AS PRECIPITATION, FOG, OR THUNDER AND ARE NOT
QUALITY CONTROLLED BY NWS.

THE REMARK "TC" DENOTES TEMPERATURE READING IN DEGREES CELSIUS.

GAZ001>058-031700-
NORTH GEORGIA

CITY           SKY/WX    TMP DP  RH WIND       PRES   REMARKS
ATLANTA        DRZL/FOG  53  51  93 E9        30.24S VSB 1/2
ATHENS         LGT RAIN  45  43  93 NE8       30.28S FOG
CHAMBLEE       CLOUDY    48  47  96 E6        30.25S FOG
PEACHTREE CITY LGT RAIN  54  52  93 VRB3      30.24S FOG
ROME           CLOUDY    50  48  93 CALM      30.21F FOG
WEST ATLANTA   LGT RAIN  52  50  93 NE9       30.24S FOG
GAINESVILLE    CLOUDY    44  42  93 E9        30.28S FOG
CARTERSVILLE   CLOUDY    50  48  93 E6        30.24S FOG


CITY           SKY/WX    TMP DP  RH WIND       PRES   REMARKS
DALTON*        CLOUDY    50  50 100 CALM      30.21F FOG
LAWRENCEVILLE* LGT RAIN  46  39  76 NE6       30.25S FOG
MARIETTA       DRIZZLE   49  49 100 E7        30.24S FOG
KENNESAW*      DRIZZLE   48  48 100 SE7       30.26R FOG
$$

GAZ059>098-102>109-031700-
CENTRAL GEORGIA

CITY           SKY/WX    TMP DP  RH WIND       PRES   REMARKS
AUGUSTA-BUSH   CLOUDY    56  56 100 E6        30.25F FOG
AUGUSTA-DANIEL FOG       57  55  93 E6        30.26F VSB 1
COLUMBUS       CLOUDY    63  61  93 S5        30.21F
MACON          CLOUDY    62  56  80 CALM      30.23S
ROBINS AFB     CLOUDY    63  57  82 CALM      30.23F


CITY           SKY/WX    TMP DP  RH WIND       PRES   REMARKS
LAGRANGE*      CLOUDY    61  60  98 CALM      30.21F FOG
SYLVANIA*      CLOUDY    59  59 100 E7        30.25F FOG
MILLEDGEVILLE* CLOUDY    59  59 100 CALM      30.24S FOG
$$

GAZ099>101-110>166-031700-
SOUTH GEORGIA

CITY           SKY/WX    TMP DP  RH WIND       PRES   REMARKS
SAVANNAH       CLOUDY    61  56  83 E7        30.26F HAZE
VALDOSTA       SUNNY     75  64  68 SE7       30.22F
ALMA           SUNNY     73  63  70 SE6       30.22F
ST SIMONS      PTSUNNY   67  61  81 SE7       30.26S
FT STEWART     CLOUDY    66  59  78 SE8       30.23F
ALBANY         MOSUNNY   73  63  68 SW5       30.23F
HUNTER AFB     CLOUDY    59  59 100 E8        30.25F
MOODY AFB      SUNNY     75  63  65 E8        30.21F
BRUNSWICK      CLOUDY    72  63  73 S6        30.26S


CITY           SKY/WX    TMP DP  RH WIND       PRES   REMARKS
BAINBRIDGE*    SUNNY     79  68  69 S6        30.21F
MOULTRIE*      SUNNY     72  64  78 E6        30.22F
VIDALIA*       PTSUNNY   70  63  78 S3        30.23F
WAYCROSS*      PTSUNNY   76  67  73 SE6       30.23F
DOUGLAS*       MOSUNNY   73  64  73 S6        30.23F
$$


USA.gov is the U.S. government's official web portal to all federal, state and local government web resources and services.